Location: Newark
(39.2833°N, 16.3333°E)
Time: 13:24:59
(UTC+00:00)

Envisat - Pass Details

Date: 23 October 2019
Orbit: 764 x 766 km, 98.1° (Epoch: 17 November)

Event Time Altitude Azimuth Distance (km) Brightness Sun altitude
Rises 04:24:15 0° 36° (NE) 3,237 6.7 -10.0°
Reaches altitude 10° 04:28:11 10° 67° (ENE) 2,304 6.5 -9.2°
Maximum altitude 04:30:07 12° 89° (E) 2,158 6.9 -8.8°
Drops below altitude 10° 04:32:03 10° 112° (ESE) 2,297 7.0 -8.5°
Sets 04:35:56 0° 143° (SE) 3,216 7.0 -7.7°
